• In Hungary
  • List of Countries
  • For 7 days
  • Water Temperature
  • Satellite Maps
  • Weather Map
  • News
  • Weather Widgets
  • user-avatar
    Login

    Hourly Weather Raevo

    Today, 23 May, Wednesday

    Time Temperature Precipitation Wind Pressure Humidity
    00:00 +10°C° 0 mm 2 mps 746 mmHg 94%
    01:00 +10°C° 0 mm 2 mps 746 mmHg 95%
    02:00 +9°C° 0 mm 2 mps 746 mmHg 96%
    03:00 +10°C° 0 mm 2 mps 746 mmHg 95%
    04:00 +10°C° 0 mm 2 mps 746 mmHg 94%
    05:00 +10°C° 0 mm 2 mps 746 mmHg 93%
    06:00 +13°C° 0 mm 2 mps 746 mmHg 86%
    07:00 +14°C° 0 mm 2 mps 746 mmHg 79%
    08:00 +15°C° 0 mm 2 mps 746 mmHg 72%
    09:00 +16°C° 0 mm 2 mps 746 mmHg 68%
    10:00 +17°C° 0 mm 3 mps 746 mmHg 63%
    11:00 +18°C° 0 mm 3 mps 746 mmHg 59%
    12:00 +19°C° 0 mm 3 mps 746 mmHg 55%
    13:00 +20°C° 0 mm 3 mps 746 mmHg 52%
    14:00 +21°C° 0 mm 3 mps 746 mmHg 48%
    15:00 +21°C° 0 mm 2 mps 746 mmHg 49%
    16:00 +20°C° 0 mm 2 mps 745 mmHg 51%
    17:00 +20°C° 0 mm 2 mps 745 mmHg 52%
    18:00 +19°C° 0 mm 1 mps 745 mmHg 60%
    19:00 +18°C° 0 mm 1 mps 745 mmHg 67%
    20:00 +15°C° 0 mm 1 mps 745 mmHg 75%
    21:00 +14°C° 0 mm 1 mps 746 mmHg 78%
    22:00 +13°C° 0 mm 1 mps 746 mmHg 82%
    23:00 +11°C° 0 mm 0 mps 746 mmHg 85%

    Tomorrow, 24 May, Thursday

    Time Temperature Precipitation Wind Pressure Humidity
    00:00 +11°C° 0 mm 0 mps 746 mmHg 86%
    01:00 +10°C° 0 mm 0 mps 746 mmHg 87%
    02:00 +10°C° 0 mm 0 mps 746 mmHg 88%
    03:00 +11°C° 0 mm 0 mps 746 mmHg 86%
    04:00 +12°C° 0 mm 1 mps 746 mmHg 84%
    05:00 +13°C° 0 mm 1 mps 746 mmHg 82%
    06:00 +15°C° 0 mm 1 mps 746 mmHg 74%
    07:00 +18°C° 0 mm 1 mps 747 mmHg 66%
    08:00 +20°C° 0 mm 1 mps 747 mmHg 57%
    09:00 +20°C° 0 mm 2 mps 747 mmHg 53%
    10:00 +21°C° 0 mm 2 mps 747 mmHg 49%
    11:00 +23°C° 0 mm 2 mps 747 mmHg 44%
    12:00 +22°C° 0.1 mm 3 mps 747 mmHg 46%
    13:00 +24°C° 0.1 mm 3 mps 747 mmHg 47%
    14:00 +24°C° 0.1 mm 3 mps 747 mmHg 48%
    15:00 +22°C° 0.1 mm 3 mps 747 mmHg 51%
    16:00 +21°C° 0.1 mm 3 mps 747 mmHg 54%
    17:00 +21°C° 0.1 mm 3 mps 747 mmHg 57%
    18:00 +19°C° 0 mm 3 mps 747 mmHg 63%
    19:00 +17°C° 0 mm 3 mps 748 mmHg 70%
    20:00 +16°C° 0 mm 2 mps 748 mmHg 77%
    21:00 +15°C° 0 mm 2 mps 748 mmHg 76%
    22:00 +13°C° 0 mm 2 mps 749 mmHg 75%
    23:00 +12°C° 0 mm 2 mps 749 mmHg 73%

    Day after tomorrow, 25 May, Friday

    Time Temperature Precipitation Wind Pressure Humidity
    00:00 +10°C° 0 mm 2 mps 750 mmHg 72%
    01:00 +9°C° 0 mm 2 mps 750 mmHg 71%
    02:00 +8°C° 0 mm 2 mps 750 mmHg 69%
    03:00 +8°C° 0 mm 2 mps 751 mmHg 68%
    04:00 +8°C° 0 mm 2 mps 751 mmHg 66%
    05:00 +8°C° 0 mm 2 mps 751 mmHg 64%
    06:00 +10°C° 0 mm 2 mps 752 mmHg 57%
    07:00 +13°C° 0 mm 2 mps 752 mmHg 50%
    08:00 +15°C° 0 mm 2 mps 752 mmHg 43%
    09:00 +17°C° 0 mm 2 mps 753 mmHg 40%
    10:00 +18°C° 0 mm 2 mps 753 mmHg 36%
    11:00 +19°C° 0 mm 2 mps 753 mmHg 33%
    12:00 +20°C° 0 mm 2 mps 753 mmHg 32%
    13:00 +20°C° 0 mm 2 mps 753 mmHg 32%
    14:00 +21°C° 0 mm 2 mps 753 mmHg 31%
    15:00 +21°C° 0 mm 2 mps 753 mmHg 32%
    16:00 +20°C° 0 mm 2 mps 753 mmHg 34%
    17:00 +21°C° 0 mm 1 mps 752 mmHg 36%
    18:00 +19°C° 0 mm 1 mps 752 mmHg 43%
    19:00 +16°C° 0 mm 1 mps 753 mmHg 51%
    20:00 +14°C° 0 mm 1 mps 753 mmHg 59%
    21:00 +13°C° 0 mm 1 mps 753 mmHg 60%
    22:00 +12°C° 0 mm 1 mps 753 mmHg 62%
    23:00 +11°C° 0 mm 1 mps 754 mmHg 63%

    26 May, Saturday

    Time Temperature Precipitation Wind Pressure Humidity
    00:00 +11°C° 0 mm 1 mps 754 mmHg 65%
    01:00 +10°C° 0 mm 1 mps 754 mmHg 66%
    02:00 +9°C° 0 mm 2 mps 754 mmHg 67%
    03:00 +9°C° 0 mm 2 mps 755 mmHg 67%
    04:00 +10°C° 0 mm 2 mps 755 mmHg 66%
    05:00 +11°C° 0 mm 1 mps 755 mmHg 66%
    06:00 +14°C° 0 mm 2 mps 755 mmHg 59%
    07:00 +16°C° 0 mm 2 mps 755 mmHg 52%
    08:00 +18°C° 0 mm 2 mps 755 mmHg 45%
    09:00 +19°C° 0 mm 2 mps 755 mmHg 42%
    10:00 +21°C° 0 mm 2 mps 755 mmHg 38%
    11:00 +23°C° 0 mm 2 mps 755 mmHg 34%
    12:00 +23°C° 0 mm 2 mps 755 mmHg 34%
    13:00 +24°C° 0 mm 2 mps 754 mmHg 34%
    14:00 +24°C° 0 mm 3 mps 754 mmHg 34%
    15:00 +24°C° 0 mm 3 mps 754 mmHg 37%
    16:00 +24°C° 0 mm 3 mps 753 mmHg 39%
    17:00 +22°C° 0 mm 3 mps 753 mmHg 42%
    18:00 +20°C° 0 mm 2 mps 753 mmHg 51%
    19:00 +18°C° 0 mm 2 mps 752 mmHg 60%
    20:00 +16°C° 0 mm 2 mps 752 mmHg 70%
    21:00 +16°C° 0 mm 2 mps 752 mmHg 71%
    22:00 +15°C° 0 mm 2 mps 752 mmHg 72%
    23:00 +13°C° 0 mm 3 mps 752 mmHg 73%

    27 May, Sunday

    Time Temperature Precipitation Wind Pressure Humidity
    00:00 +13°C° 0 mm 3 mps 752 mmHg 73%
    01:00 +13°C° 0 mm 3 mps 752 mmHg 73%
    02:00 +12°C° 0 mm 3 mps 752 mmHg 74%
    03:00 +12°C° 0 mm 3 mps 752 mmHg 74%
    04:00 +13°C° 0 mm 3 mps 752 mmHg 74%
    05:00 +13°C° 0 mm 3 mps 752 mmHg 74%
    06:00 +14°C° 0 mm 4 mps 752 mmHg 69%
    07:00 +17°C° 0 mm 4 mps 751 mmHg 64%
    08:00 +19°C° 0 mm 4 mps 751 mmHg 59%
    09:00 +20°C° 0 mm 4 mps 751 mmHg 55%
    10:00 +22°C° 0 mm 4 mps 751 mmHg 51%
    11:00 +23°C° 0 mm 4 mps 751 mmHg 47%
    12:00 +25°C° 0 mm 4 mps 751 mmHg 45%
    13:00 +25°C° 0 mm 4 mps 750 mmHg 44%
    14:00 +25°C° 0 mm 4 mps 750 mmHg 42%
    15:00 +25°C° 0 mm 4 mps 750 mmHg 42%
    16:00 +23°C° 0 mm 4 mps 750 mmHg 42%
    17:00 +24°C° 0 mm 3 mps 750 mmHg 41%
    18:00 +21°C° 0 mm 3 mps 750 mmHg 46%
    19:00 +18°C° 0 mm 3 mps 750 mmHg 50%
    20:00 +16°C° 0 mm 2 mps 751 mmHg 55%
    21:00 +14°C° 0 mm 2 mps 751 mmHg 56%
    22:00 +13°C° 0 mm 2 mps 751 mmHg 57%
    23:00 +10°C° 0 mm 2 mps 752 mmHg 58%

    28 May, Monday

    Time Temperature Precipitation Wind Pressure Humidity
    00:00 +11°C° 0 mm 1 mps 752 mmHg 61%
    01:00 +10°C° 0 mm 1 mps 752 mmHg 64%
    02:00 +9°C° 0 mm 1 mps 753 mmHg 68%
    03:00 +10°C° 0 mm 1 mps 753 mmHg 68%
    04:00 +10°C° 0 mm 1 mps 753 mmHg 68%
    05:00 +10°C° 0 mm 0 mps 753 mmHg 68%
    06:00 +13°C° 0 mm 1 mps 753 mmHg 60%
    07:00 +16°C° 0 mm 1 mps 753 mmHg 52%
    08:00 +19°C° 0 mm 1 mps 753 mmHg 44%
    09:00 +20°C° 0 mm 1 mps 753 mmHg 40%
    10:00 +22°C° 0 mm 1 mps 753 mmHg 37%
    11:00 +23°C° 0 mm 1 mps 753 mmHg 33%
    12:00 +24°C° 0 mm 1 mps 752 mmHg 32%
    13:00 +24°C° 0 mm 1 mps 752 mmHg 31%
    14:00 +24°C° 0 mm 2 mps 752 mmHg 30%
    15:00 +24°C° 0 mm 2 mps 752 mmHg 32%
    16:00 +24°C° 0 mm 2 mps 751 mmHg 33%
    17:00 +23°C° 0 mm 2 mps 751 mmHg 35%
    18:00 +20°C° 0 mm 2 mps 751 mmHg 44%
    19:00 +19°C° 0 mm 1 mps 751 mmHg 52%
    20:00 +16°C° 0 mm 1 mps 751 mmHg 61%
    21:00 +15°C° 0 mm 1 mps 751 mmHg 62%
    22:00 +14°C° 0 mm 1 mps 751 mmHg 64%
    23:00 +13°C° 0 mm 1 mps 751 mmHg 65%
    Show more